星链-35472(STARLINK-35472)

导读

STARLINK-35472是由美国发射的星链计划卫星,于2025年10月8日发射升空,隶属于SpaceX公司的星链星座项目。星链计划旨在通过近地轨道卫星群,为全球提供高速互联网接入服务,该卫星将助力星链网络进一步覆盖,提升全球网络服务的稳定性与容量,推动全球互联基础设施建设。

Basic Information
目录编号:
65913
目录名称:
STARLINK-35472
国际标识:
2025-225D
轨道中心:
EARTH
卫星名称:
星链-35472
卫星全名:
星链-35472(STARLINK-35472)
卫星状态:
在轨 (已飞行331 天)
发射日期:
2025-10-08 UTC
国别 :
美国 (US)
星等 :
--
Orbit Information
数据来源 国际轨道数据
星历时间: 2026-09-03T19:27:50+0800
18小时前
查看轨道信息
半长轴: 6840.962km
偏心率: 0.0001405
轨道倾角: 53.159°
近地点辐角 69.818°
升交点赤经 57.364°
平近点角 290.298°
近地点: 461.863km
远地点: 463.787km
周期: 93.850分钟
每日圈数: 15.343593
Detailed Information
固有亮度:
5
最大亮度:
2.5
卫星平台:
Starlink V1.0
覆盖范围:
全球
运营商:
太空探索技术公司
运营商所在国:
美国
制造商(研发单位):
太空探索技术公司
制造商所在国:
美国
使用方式:
暂无
Satellite Introduction
Starlink 计划是 SpaceX 推出的全球卫星互联网项目,通过发射低轨道卫星,为全球尤其是偏远地区提供高速、低延迟的互联网服务。自 2019 年起,Starlink 已部署数千颗卫星,旨在缩小全球数字鸿沟,推动互联网普及。该项目还为军事、航空等行业提供通信支持,带来广泛经济效益。
2D Orbit Map
3D Orbit Map
Orbit Altitude Analysis Chart
Orbit Inclination Analysis Chart
Orbit Comprehensive Analysis Chart
View Comprehensive Chart
Conjunction Data List
Event ID Objects TCA Miss Dist (km) Collision Risk Probability Collision Risk Index (CRI) Action
CDM_260905-051905-767006-591321
2026-09-05T
05:19:51+0000
0.516 km
远距离
9.128185E-5 中风险 0.74
CDM_260905-121106-445706-591321
2026-09-05T
12:11:45+0000
0.619 km
远距离
7.954696E-5 中风险 0.73
CDM_260904-115806-445706-591321
2026-09-04T
11:58:02+0000
0.713 km
远距离
5.231578E-5 中风险 0.69
CDM_260904-235105-767006-591321
2026-09-04T
23:51:35+0000
0.906 km
远距离
1.615889E-5 中风险 0.59
CDM_260905-103706-445706-591321
2026-09-05T
10:37:58+0000
1.039 km
极远距离
1.502861E-5 中风险 0.59
CDM_260904-133106-445706-591321
2026-09-04T
13:31:50+0000
1.208 km
极远距离
8.89618E-6 低风险 0.54
CDM_260904-102406-445706-591321
2026-09-04T
10:24:15+0000
1.643 km
极远距离
3.259066E-6 低风险 0.45
CDM_260903-132205-226906-591321
2026-09-03T
13:22:33+0000
1.427 km
极远距离
2.839339E-6 低风险 0.44
CDM_260905-134506-445706-591321
2026-09-05T
13:45:32+0000
2.022 km
极远距离
1.855029E-6 低风险 0.4
CDM_260904-150506-445706-591321
2026-09-04T
15:05:37+0000
2.379 km
极远距离
1.30781E-6 低风险 0.37